Location: Lichtensteig
(47.3376°N, 9.0841°E)
Time: 09:18:58
(UTC+00:00)

FENGYUN 1C DEB - Pass Details

Date: 27 September 2021
Orbit: 837 x 877 km, 98.7° (Epoch: 26 October)

Event Time Altitude Azimuth Distance (km) Brightness Sun altitude
Rises 17:46:07 0° 165° (SSE) 3,455 ? -6.8°
Reaches altitude 10° 17:48:29 10° 166° (SSE) 2,523 ? -7.2°
Maximum altitude 17:54:08 84° 254° (WSW) 889 ? -8.1°
Drops below altitude 10° 17:59:49 10° 344° (NNW) 2,541 ? -9.1°
Sets 18:02:13 0° 346° (NNW) 3,481 ? -9.5°
